Regional Weather Roundup
Issued by NWS Northern Indiana

Home | Current Version | Previous Version | Graphics & Text | Print | Product List | Glossary On
Versions: 1 2 3 4 5 6 7 8 9 10 11 12 13 14 15 16 17 18 19 20 21 22 23 24 25 26 27 28 29 30 31 32 33 34 35 36 37 38 39 40 41 42 43 44 45 46 47 48 49 50
000
ASUS43 KIWX 222010
RWRIWX

KIWX WEATHER ROUNDUP
NATIONAL WEATHER SERVICE NORTHERN INDIANA
400 PM EDT MON MAY 22 2017

NOTE: "FAIR" INDICATES FEW OR NO CLOUDS BELOW 12,000 FEET WITH NO
SIGNIFICANT WEATHER AND/OR OBSTRUCTIONS TO VISIBILITY.

* THESE STATIONS ARE NOT UNDER NWS QUALITY CONTROL. THEY ALSO MAY NOT
  REPORT WEATHER SUCH AS PRECIPITATION OR FOG.

INZ001>027-222100-
NORTHERN INDIANA

CITY           SKY/WX    TMP DP  RH WIND       PRES   REMARKS
GARY*          MOSUNNY   75  36  23 SW14      29.95F
VALPARAISO     SUNNY     73  47  39 SW14G24   29.97F
MICHIGAN CITY* SUNNY     72  46  40 S12G18    29.97F
LAPORTE*       SUNNY     70  47  44 SW14G22   29.99S
KNOX*          SUNNY     70  34  26 SW13      29.99F
SOUTH BEND     SUNNY     69  48  47 W18       29.99F
ELKHART*       MOSUNNY   72  46  40 W14G20    29.99F
GOSHEN         SUNNY     69  47  45 W10G18    30.00F
MONTICELLO*    SUNNY     70  47  42 SW10G22   30.00F
LOGANSPORT*    SUNNY     68  46  45 SW8       30.03F
ROCHESTER*     SUNNY     72  45  37 SW13G20   30.02S
WARSAW*        SUNNY     68  46  45 SW9G17    30.01S
ANGOLA*        MOSUNNY   68  61  77 W9        30.00S
FORT WAYNE     MOSUNNY   69  48  47 SW8G21    30.03F
HUNTINGTON*    SUNNY     68  47  46 W8G17     30.03S
PERU/GRISSOM   SUNNY     69  50  51 SW8       30.02F
MARION*        MOSUNNY   66  46  48 SW9       30.05F

$$
INZ028>050-222100-
CENTRAL INDIANA

CITY           SKY/WX    TMP DP  RH WIND       PRES   REMARKS
LAFAYETTE      SUNNY     71  48  43 VRB7      30.01F
KOKOMO*        SUNNY     69  49  48 SW10      30.04F
MUNCIE*        SUNNY     69  44  40 W6        30.05F
INDIANAPOLIS   PTSUNNY   69  47  45 S9        30.05F

$$
MIZ043>046-050>051-056>058-064>065-071>073-077>080-222100-
SOUTHWEST LOWER MICHIGAN

CITY           SKY/WX    TMP DP  RH WIND       PRES   REMARKS
BATTLE CREEK   SUNNY     69  45  41 W16G23    29.98S
BENTON HARBOR  SUNNY     69  44  40 SW16G23   29.97F
COLDWATER*     PTSUNNY   65  47  51 SW13G18   29.99S
HILLSDALE*     PTSUNNY   64  45  48 W10       29.99S
HOLLAND        MOSUNNY   66  45  46 SW20G29   29.97F
GRAND RAPIDS   MOSUNNY   65  45  48 SW22      29.96S
KALAMAZOO      MOSUNNY   69  41  36 W15G25    29.98F
STURGIS*       MOSUNNY   68  48  49 W13G18    29.99S
THREE RIVERS*  PTSUNNY   69  45  42 W8G18     29.99S

$$
OHZ001>008-015>018-024>025-222100-
NORTHWEST OHIO

CITY           SKY/WX    TMP DP  RH WIND       PRES   REMARKS
WAUSEON*       FAIR      70  45  40 W18       30.01R
DEFIANCE       SUNNY     67  43  41 W9        30.02S
FINDLAY        MOSUNNY   69  45  41 W13G21    30.03S
TOLEDO EXPRESS SUNNY     69  44  40 W16G23    30.00S
TOLEDO METCALF SUNNY     69  47  45 W14G22    30.01S
LIMA           SUNNY     67  48  50 W9        30.04F

$$
AND FOR LAKE MICHIGAN COASTAL AND OPEN LAKE BUOY OBSERVATIONS

STATION/POSITION TEMP    WIND        PRES    VSBY  WAVE
                 AIR SEA DIR/SP/G                  HT/PER
                 (F)     (DEG/KT/KT) (MB)    (MI)  (FT/S)
CALUMET HARBOR    71     200/ 12/ 18 1013.3F
MICHIGAN CITY     65     210/ 12/ 14   N/A
BURNS HARBOR      70     220/ 14     1014.6
SOUTH LAKE BUOY   49 45  170/ 12/ 14 1014.5          1/ 3
4 MI NW BRIDGMAN  59 55  230/  6/  8 1015.2          1/ 3
MICHIGAN CITY     62 54  220/  8/ 10   N/A           1/ 3

$$
&&




USA.gov is the U.S. government's official web portal to all federal, state and local government web resources and services.